EW4427 Weather Reports


time (UTC)temp
C
wind
direction
speed
KPH
gust
KPH
rain 1hr
cm
rain 24hr
cm
rain mn
cm
humidity
%
barometer
mb
20260902230543 30 0 0.0 0.0 0.00 0.00 0.00 77 1012.1
20260902230059 30 0 0.0 0.0 0.00 0.00 0.00 76 1012.2
20260902225547 30 0 0.0 0.0 0.00 0.00 0.00 76 1012.2
20260902225043 30 0 0.0 0.0 0.00 0.00 0.00 75 1012.2
20260902224605 30 0 0.0 0.0 0.00 0.00 0.00 75 1012.3
20260902224042 31 0 0.0 0.0 0.00 0.00 0.00 74 1012.3
20260902223542 31 0 0.0 0.0 0.00 0.00 0.00 74 1012.2
20260902223101 31 0 0.0 0.0 0.00 0.00 0.00 73 1012.2
20260902222545 31 0 0.0 0.0 0.00 0.00 0.00 72 1012.3
20260902222043 31 0 0.0 0.0 0.00 0.00 0.00 72 1012.5
20260902221600 31 0 0.0 0.0 0.00 0.00 0.00 72 1012.6
20260902221043 31 0 0.0 0.0 0.00 0.00 0.00 72 1012.4
20260902220544 31 0 0.0 0.0 0.00 0.00 0.00 72 1012.3
20260902220100 31 0 0.0 0.0 0.00 0.00 0.00 71 1012.3
20260902215545 31 0 0.0 0.0 0.00 0.00 0.00 70 1012.3
20260902215042 31 0 0.0 0.0 0.00 0.00 0.00 71 1012.4
20260902214556 31 0 0.0 0.0 0.00 0.00 0.00 70 1012.3
20260902214041 31 0 0.0 0.0 0.00 0.00 0.00 70 1012.4
20260902213543 31 0 0.0 0.0 0.00 0.00 0.00 69 1012.4
20260902213105 31 0 0.0 0.0 0.00 0.00 0.00 69 1012.6
20260902212544 32 0 0.0 0.0 0.00 0.00 0.00 68 1012.5
20260902212048 32 0 0.0 0.0 0.00 0.00 0.00 67 1012.5
20260902211600 32 0 0.0 0.0 0.00 0.00 0.00 66 1012.6
20260902211042 32 0 0.0 0.0 0.00 0.00 0.00 66 1012.5
20260902210542 32 0 0.0 0.0 0.00 0.00 0.00 66 1012.6
20260902205541 32 0 0.0 0.0 0.00 0.00 0.00 65 1012.7
20260902205044 32 0 0.0 0.0 0.00 0.00 0.00 64 1012.7
20260902204602 33 0 0.0 0.0 0.00 0.00 0.00 64 1012.5
20260902204044 33 0 0.0 0.0 0.00 0.00 0.00 64 1012.5
20260902203544 32 0 0.0 0.0 0.00 0.00 0.00 65 1012.5
20260902203122 32 0 0.0 0.0 0.00 0.00 0.00 65 1012.5
20260902202543 32 0 0.0 0.0 0.00 0.00 0.00 65 1012.4
20260902202043 32 0 0.0 0.0 0.00 0.00 0.00 64 1012.5
20260902201554 32 0 0.0 0.0 0.00 0.00 0.00 64 1012.5
20260902201042 32 0 0.0 0.0 0.00 0.00 0.00 65 1012.5
20260902200543 32 0 0.0 0.0 0.00 0.00 0.00 67 1012.7
20260902200100 32 0 0.0 0.0 0.00 0.00 0.00 64 1012.7
20260902195545 32 0 0.0 0.0 0.00 0.00 0.00 65 1012.8
20260902195044 32 0 0.0 0.0 0.00 0.00 0.00 68 1012.7
20260902194559 32 0 0.0 0.0 0.00 0.00 0.00 67 1012.7
20260902194044 32 0 0.0 11.3 0.00 0.00 0.00 66 1012.7
20260902193545 32 0 0.0 11.3 0.00 0.00 0.00 66 1012.7
20260902193102 33 0 0.0 0.0 0.00 0.00 0.00 66 1012.8
20260902192541 33 0 0.0 0.0 0.00 0.00 0.00 65 1013.0
20260902192045 32 0 0.0 0.0 0.00 0.00 0.00 67 1012.9
20260902191559 32 0 0.0 0.0 0.00 0.00 0.00 65 1012.8
20260902191041 32 0 0.0 0.0 0.00 0.00 0.00 66 1013.0
20260902190541 32 0 0.0 0.0 0.00 0.00 0.00 67 1013.0
20260902190100 32 0 0.0 0.0 0.00 0.00 0.00 69 1013.2
20260902185619 32 0 0.0 0.0 0.00 0.00 0.00 68 1013.1
20260902185046 32 0 0.0 0.0 0.00 0.00 0.00 69 1013.1
20260902184603 31 0 0.0 0.0 0.00 0.00 0.00 71 1013.1
20260902184046 31 0 0.0 0.0 0.00 0.00 0.00 71 1013.1
20260902183547 31 0 0.0 0.0 0.00 0.00 0.00 71 1013.1
20260902183120 30 0 0.0 0.0 0.00 0.00 0.00 73 1013.2
20260902182547 30 0 0.0 0.0 0.00 0.00 0.00 74 1013.1
20260902182048 30 0 0.0 0.0 0.00 0.00 0.00 73 1013.1
20260902181558 30 0 0.0 0.0 0.00 0.00 0.00 75 1013.2
20260902181045 30 0 0.0 0.0 0.00 0.00 0.00 73 1013.0
20260902180546 30 0 0.0 0.0 0.00 0.00 0.00 74 1013.2
20260902180055 30 0 0.0 0.0 0.00 0.00 0.00 75 1013.3
20260902175546 29 0 0.0 0.0 0.00 0.03 0.00 75 1013.5
20260902175046 29 0 0.0 0.0 0.00 0.03 0.00 77 1013.6
20260902174608 29 0 0.0 0.0 0.00 0.03 0.00 75 1013.5
20260902174047 28 0 0.0 0.0 0.00 0.03 0.00 77 1013.7
20260902173546 28 0 0.0 0.0 0.00 0.03 0.00 76 1013.6
20260902173059 28 0 0.0 0.0 0.00 0.03 0.00 78 1013.6
20260902172546 28 0 0.0 0.0 0.00 0.03 0.00 78 1013.6
20260902172048 28 0 0.0 0.0 0.00 0.03 0.00 79 1013.6
20260902171605 28 0 0.0 0.0 0.00 0.03 0.00 79 1013.8
20260902171047 28 0 0.0 0.0 0.00 0.03 0.00 79 1013.9
20260902170546 28 0 0.0 0.0 0.00 0.03 0.00 79 1013.8
20260902165547 28 0 0.0 0.0 0.00 0.03 0.00 81 1013.7
20260902165047 27 0 0.0 0.0 0.00 0.03 0.00 82 1013.8
20260902164600 27 0 0.0 0.0 0.00 0.03 0.00 82 1013.9
20260902164046 27 0 0.0 0.0 0.00 0.03 0.00 82 1013.8
20260902163546 27 0 0.0 0.0 0.00 0.03 0.00 84 1013.8
20260902163116 27 0 0.0 0.0 0.00 0.03 0.00 84 1013.6
20260902162544 27 0 0.0 0.0 0.00 0.03 0.00 84 1013.6
20260902162044 27 0 0.0 0.0 0.00 0.03 0.00 84 1013.7
20260902161605 26 0 0.0 0.0 0.00 0.03 0.00 85 1013.5
20260902161043 26 0 0.0 0.0 0.00 0.03 0.00 85 1013.5
20260902160542 26 0 0.0 0.0 0.00 0.03 0.00 85 1013.5
20260902155543 26 0 0.0 0.0 0.00 0.03 0.00 85 1013.7
20260902155043 25 0 0.0 0.0 0.00 0.03 0.00 84 1013.8
20260902154603 25 0 0.0 0.0 0.00 0.03 0.00 84 1013.8
20260902154043 25 0 0.0 0.0 0.00 0.03 0.00 84 1013.8
20260902153544 25 0 0.0 0.0 0.00 0.03 0.00 83 1013.9
20260902153112 25 0 0.0 0.0 0.00 0.03 0.00 82 1013.9
20260902152543 25 0 0.0 0.0 0.00 0.03 0.00 82 1013.9
20260902152045 25 0 0.0 0.0 0.00 0.03 0.00 83 1014.0
20260902151603 25 0 0.0 0.0 0.00 0.03 0.00 84 1014.0
20260902151048 25 0 0.0 0.0 0.00 0.03 0.00 86 1014.1
20260902150545 25 0 0.0 0.0 0.00 0.03 0.00 87 1014.1
20260902150059 25 0 0.0 0.0 0.00 0.03 0.00 87 1014.0
20260902145546 24 0 0.0 0.0 0.00 0.03 0.00 88 1014.1
20260902145046 24 0 0.0 0.0 0.00 0.03 0.00 88 1014.2
20260902144555 24 0 0.0 0.0 0.00 0.03 0.00 89 1014.2
20260902144046 24 0 0.0 0.0 0.00 0.03 0.00 90 1014.2
20260902143550 24 0 0.0 0.0 0.00 0.03 0.00 91 1014.4
20260902143058 24 0 0.0 0.0 0.00 0.03 0.00 91 1014.2
20260902142549 23 0 0.0 0.0 0.00 0.03 0.00 91 1014.3
20260902142047 23 0 0.0 0.0 0.00 0.03 0.00 92 1014.5
20260902141603 23 0 0.0 0.0 0.00 0.03 0.00 92 1014.4
20260902141046 23 0 0.0 0.0 0.00 0.03 0.00 93 1014.4
20260902140547 23 0 0.0 0.0 0.00 0.03 0.00 93 1014.5
20260902135546 23 0 0.0 0.0 0.00 0.03 0.00 94 1014.6
20260902135044 23 0 0.0 0.0 0.00 0.03 0.00 94 1014.5
20260902134600 23 0 0.0 0.0 0.00 0.03 0.00 94 1014.4
20260902134044 23 0 0.0 0.0 0.00 0.03 0.00 95 1014.5
20260902133546 23 0 0.0 0.0 0.00 0.03 0.00 95 1014.5
20260902133108 23 0 0.0 0.0 0.00 0.03 0.00 95 1014.6
20260902132546 22 0 0.0 0.0 0.00 0.03 0.00 95 1014.6
20260902132044 22 0 0.0 0.0 0.00 0.03 0.00 95 1014.8
20260902131603 22 0 0.0 0.0 0.00 0.03 0.00 95 1015.0
20260902131047 22 0 0.0 0.0 0.00 0.03 0.00 95 1015.0
20260902130544 22 0 0.0 0.0 0.00 0.03 0.00 95 1015.1
20260902125543 22 0 0.0 0.0 0.00 0.03 0.00 95 1015.2
20260902125046 22 0 0.0 0.0 0.00 0.03 0.00 94 1015.0
20260902124602 22 0 0.0 0.0 0.00 0.03 0.00 94 1015.1
20260902124047 22 0 0.0 0.0 0.00 0.03 0.00 94 1015.3
20260902123550 22 0 0.0 0.0 0.00 0.03 0.00 94 1015.3
20260902123124 22 0 0.0 0.0 0.00 0.03 0.00 94 1015.4
20260902122546 22 0 0.0 0.0 0.00 0.03 0.00 94 1015.2
20260902122045 22 0 0.0 0.0 0.00 0.03 0.00 94 1015.4
20260902121602 22 0 0.0 0.0 0.00 0.03 0.00 94 1015.2
20260902121044 22 0 0.0 0.0 0.00 0.03 0.00 94 1014.9
20260902120548 22 0 0.0 0.0 0.00 0.03 0.00 94 1015.1
20260902120108 22 0 0.0 0.0 0.00 0.03 0.00 94 1014.8
20260902115547 22 0 0.0 0.0 0.00 0.03 0.00 94 1014.7
20260902115048 22 0 0.0 0.0 0.00 0.03 0.00 94 1014.6
20260902114558 22 0 0.0 0.0 0.00 0.03 0.00 94 1014.5
20260902114047 22 0 0.0 0.0 0.00 0.03 0.00 94 1014.3
20260902113546 22 0 0.0 0.0 0.00 0.03 0.00 94 1014.5
20260902113054 22 0 0.0 0.0 0.00 0.03 0.00 94 1014.0
20260902112544 22 0 0.0 0.0 0.00 0.03 0.00 94 1013.9
20260902112044 22 0 0.0 0.0 0.00 0.03 0.00 94 1013.9
20260902111606 22 0 0.0 0.0 0.00 0.03 0.00 94 1013.8
20260902111044 22 0 0.0 0.0 0.00 0.03 0.00 94 1013.9
20260902110544 22 0 0.0 0.0 0.00 0.03 0.00 94 1013.9
20260902110058 22 0 0.0 0.0 0.00 0.03 0.00 94 1013.9
20260902105546 22 0 0.0 0.0 0.00 0.03 0.00 94 1013.9
20260902105049 22 0 0.0 0.0 0.00 0.03 0.00 94 1014.0
20260902104555 22 0 0.0 0.0 0.00 0.03 0.00 94 1014.1
20260902104044 22 0 0.0 0.0 0.00 0.03 0.00 94 1014.1
20260902103544 22 0 0.0 0.0 0.00 0.03 0.00 94 1014.1
20260902103053 22 0 0.0 0.0 0.00 0.03 0.00 94 1014.1
20260902102544 22 0 0.0 0.0 0.00 0.03 0.00 94 1014.0
20260902102044 22 0 0.0 0.0 0.00 0.03 0.00 94 1014.1
20260902101557 22 0 0.0 0.0 0.00 0.03 0.00 94 1014.1
20260902101043 22 0 0.0 0.0 0.00 0.03 0.00 94 1014.2
20260902100547 23 0 0.0 0.0 0.00 0.03 0.00 94 1014.1
20260902100106 23 0 0.0 0.0 0.00 0.03 0.00 94 1013.9
20260902095545 23 0 0.0 0.0 0.00 0.03 0.00 94 1014.4
20260902095046 23 0 0.0 0.0 0.00 0.03 0.00 95 1013.9
20260902094600 23 0 0.0 0.0 0.00 0.03 0.00 95 1013.8
20260902094044 23 0 0.0 0.0 0.00 0.03 0.00 95 1013.9
20260902093547 23 0 0.0 0.0 0.00 0.03 0.00 94 1014.0
20260902093059 23 0 0.0 0.0 0.00 0.03 0.00 94 1013.9
20260902092546 23 0 0.0 0.0 0.00 0.03 0.00 94 1013.9
20260902092046 23 0 0.0 0.0 0.00 0.03 0.00 94 1014.0
20260902091610 22 0 0.0 0.0 0.00 0.03 0.00 94 1013.9
20260902091046 22 0 0.0 0.0 0.00 0.03 0.00 93 1013.9
20260902090546 22 0 0.0 0.0 0.00 0.03 0.00 93 1013.9
20260902085544 23 0 0.0 0.0 0.00 0.03 0.00 93 1013.9
20260902085044 23 0 0.0 0.0 0.00 0.03 0.00 93 1013.9
20260902084604 23 0 0.0 0.0 0.00 0.03 0.00 93 1013.9
20260902084047 23 0 0.0 0.0 0.00 0.03 0.00 93 1013.8
20260902083543 23 0 0.0 0.0 0.00 0.03 0.00 93 1013.9
20260902083124 23 0 0.0 0.0 0.00 0.03 0.00 93 1013.9
20260902082546 23 0 0.0 0.0 0.00 0.03 0.00 93 1013.8
20260902082046 23 0 0.0 0.0 0.00 0.03 0.00 93 1013.7
20260902081557 23 0 0.0 0.0 0.00 0.03 0.00 93 1013.6
20260902081048 23 0 0.0 0.0 0.00 0.03 0.00 93 1013.5
20260902080546 23 0 0.0 0.0 0.00 0.03 0.00 93 1013.6
20260902080059 23 0 0.0 0.0 0.00 0.03 0.00 93 1013.5
20260902075546 23 0 0.0 0.0 0.00 0.03 0.00 93 1013.5
20260902075047 23 0 0.0 0.0 0.00 0.03 0.00 93 1013.7
20260902074612 23 0 0.0 0.0 0.00 0.03 0.00 93 1013.6
20260902074046 23 0 0.0 0.0 0.00 0.03 0.00 93 1013.7
20260902073545 23 0 0.0 0.0 0.00 0.03 0.00 93 1013.6
20260902073102 23 0 0.0 0.0 0.00 0.03 0.00 93 1013.6
20260902072546 23 0 0.0 0.0 0.00 0.03 0.00 93 1013.6
20260902072046 23 0 0.0 0.0 0.00 0.03 0.00 93 1013.5
20260902071607 23 0 0.0 0.0 0.00 0.03 0.00 93 1013.6
20260902071048 23 0 0.0 0.0 0.00 0.03 0.00 93 1013.5
20260902070545 24 0 0.0 0.0 0.00 0.03 0.00 93 1013.6
20260902070104 24 0 0.0 0.0 0.00 0.03 0.00 93 1013.8
20260902065546 24 0 0.0 0.0 0.00 0.03 0.00 93 1013.7
20260902065047 24 0 0.0 0.0 0.00 0.03 0.00 93 1013.7
20260902064600 24 0 0.0 0.0 0.00 0.03 0.00 93 1013.7
20260902064045 24 0 0.0 0.0 0.00 0.03 0.00 93 1013.7
20260902063545 24 0 0.0 0.0 0.00 0.03 0.00 93 1013.8
20260902063100 24 0 0.0 0.0 0.00 0.03 0.00 94 1013.9
20260902062546 24 0 0.0 0.0 0.00 0.03 0.00 94 1013.8
20260902062044 24 0 0.0 0.0 0.00 0.03 0.00 94 1013.9
20260902061602 24 0 0.0 0.0 0.00 0.03 0.00 94 1013.9
20260902061044 24 0 0.0 0.0 0.00 0.03 0.00 94 1014.0
20260902060543 24 0 0.0 0.0 0.00 0.03 0.00 94 1013.9
20260902060109 24 0 0.0 0.0 0.00 0.03 0.00 94 1014.0
20260902055546 24 0 0.0 0.0 0.00 0.03 0.00 94 1014.1
20260902055042 24 0 0.0 0.0 0.00 0.03 0.00 94 1014.0
20260902054557 24 0 0.0 0.0 0.00 0.03 0.00 94 1014.0
20260902054043 25 0 0.0 0.0 0.00 0.03 0.00 94 1013.9
20260902053542 25 0 0.0 0.0 0.00 0.03 0.00 94 1013.8
20260902053057 25 0 0.0 0.0 0.00 0.03 0.00 94 1013.8
20260902052542 25 0 0.0 0.0 0.00 0.03 0.00 94 1013.8
20260902052042 25 0 0.0 0.0 0.00 0.03 0.00 94 1013.8
20260902051601 25 0 0.0 0.0 0.00 0.03 0.00 94 1013.7
20260902051043 25 0 0.0 0.0 0.00 0.03 0.00 94 1013.7
20260902050545 25 0 0.0 0.0 0.00 0.03 0.00 94 1013.6
20260902050105 25 0 0.0 0.0 0.00 0.03 0.00 94 1013.5
20260902045542 25 0 0.0 0.0 0.00 0.03 0.03 94 1013.6
20260902045042 24 0 0.0 0.0 0.00 0.03 0.03 93 1013.6
20260902044603 24 0 0.0 0.0 0.00 0.03 0.03 92 1013.7
20260902044042 25 0 0.0 0.0 0.00 0.03 0.03 92 1013.7
20260902043541 25 0 0.0 0.0 0.00 0.03 0.03 92 1013.8
20260902043104 25 0 0.0 0.0 0.00 0.03 0.03 92 1013.7
20260902042545 25 0 0.0 0.0 0.00 0.03 0.03 92 1013.7
20260902042044 25 0 0.0 0.0 0.00 0.03 0.03 92 1013.6
20260902041600 25 0 0.0 0.0 0.00 0.03 0.03 93 1013.7
20260902041042 25 0 0.0 0.0 0.00 0.03 0.03 93 1013.6
20260902040542 25 0 0.0 0.0 0.00 0.03 0.03 93 1013.6
20260902035545 25 0 0.0 0.0 0.00 0.03 0.03 92 1013.5
20260902035046 25 0 0.0 0.0 0.00 0.03 0.03 92 1013.7
20260902034602 25 0 0.0 0.0 0.00 0.03 0.03 92 1013.7
20260902034044 25 0 0.0 0.0 0.00 0.03 0.03 92 1013.6
20260902033542 25 0 0.0 0.0 0.00 0.03 0.03 92 1013.7
20260902033055 25 0 0.0 0.0 0.00 0.03 0.03 91 1013.7
20260902032545 25 0 0.0 0.0 0.00 0.03 0.03 90 1013.8
20260902032042 25 0 0.0 0.0 0.00 0.03 0.03 90 1013.8
20260902031612 25 0 0.0 0.0 0.00 0.03 0.03 90 1013.8
20260902031046 25 0 0.0 0.0 0.00 0.03 0.03 90 1013.9
20260902030549 25 0 0.0 0.0 0.00 0.03 0.03 89 1013.8
20260902025545 25 0 0.0 0.0 0.00 0.03 0.03 89 1013.7
20260902025045 25 0 0.0 0.0 0.00 0.03 0.03 89 1013.8
20260902024605 25 0 0.0 0.0 0.00 0.03 0.03 89 1013.8
20260902024045 25 0 0.0 0.0 0.00 0.03 0.03 89 1013.8
20260902023545 25 0 0.0 0.0 0.00 0.03 0.03 89 1014.0
20260902023056 25 0 0.0 0.0 0.00 0.03 0.03 89 1013.9
20260902022550 25 0 0.0 0.0 0.00 0.03 0.03 89 1014.0
20260902022046 26 0 0.0 0.0 0.00 0.03 0.03 89 1014.1
20260902021611 26 0 0.0 0.0 0.00 0.03 0.03 88 1014.1
20260902021048 26 0 0.0 0.0 0.00 0.03 0.03 88 1014.1
20260902020545 26 0 0.0 0.0 0.00 0.03 0.03 88 1014.1
20260902020117 26 0 0.0 0.0 0.00 0.03 0.03 88 1014.1
20260902015544 26 0 0.0 0.0 0.00 0.03 0.03 87 1014.0
20260902015047 26 0 0.0 0.0 0.00 0.03 0.03 87 1013.9
20260902014558 26 0 0.0 0.0 0.00 0.03 0.03 87 1013.9
20260902014045 26 0 0.0 0.0 0.00 0.03 0.03 87 1013.8
20260902013546 26 0 0.0 0.0 0.00 0.03 0.03 87 1013.7
20260902013058 26 0 0.0 0.0 0.00 0.03 0.03 87 1013.7
20260902012547 26 0 0.0 0.0 0.00 0.03 0.03 87 1013.7
20260902012045 26 0 0.0 0.0 0.00 0.03 0.03 86 1013.7
20260902011603 26 0 0.0 0.0 0.00 0.03 0.03 86 1013.7
20260902011046 26 0 0.0 0.0 0.00 0.03 0.03 86 1013.7
20260902010545 26 0 0.0 0.0 0.00 0.03 0.03 86 1013.5
20260902010100 27 0 0.0 0.0 0.00 0.03 0.03 86 1013.4
20260902005546 27 0 0.0 0.0 0.00 0.03 0.03 86 1013.4
20260902005046 27 0 0.0 0.0 0.00 0.03 0.03 86 1013.3
20260902004559 27 0 0.0 0.0 0.00 0.03 0.03 86 1013.2
20260902004046 27 0 0.0 0.0 0.00 0.03 0.03 86 1013.2
20260902003546 27 0 0.0 0.0 0.00 0.03 0.03 86 1013.2
20260902003111 27 0 0.0 0.0 0.00 0.03 0.03 86 1013.3
20260902002545 27 0 0.0 0.0 0.00 0.03 0.03 86 1013.1
20260902002048 27 0 0.0 0.0 0.00 0.03 0.03 85 1013.0
20260902001558 27 0 0.0 0.0 0.00 0.03 0.03 85 1013.0
20260902001045 27 0 0.0 0.0 0.00 0.03 0.03 84 1013.0
20260902000550 27 0 0.0 0.0 0.00 0.03 0.03 84 1013.0
20260901235546 27 0 0.0 0.0 0.00 0.03 0.03 84 1013.0
20260901235047 27 0 0.0 0.0 0.00 0.03 0.03 84 1013.0
20260901234559 27 0 0.0 0.0 0.00 0.03 0.03 84 1013.0
20260901234047 27 0 0.0 0.0 0.00 0.03 0.03 84 1013.0
20260901233546 27 0 0.0 0.0 0.00 0.03 0.03 84 1012.9
20260901233101 27 0 0.0 0.0 0.00 0.03 0.03 84 1012.8
20260901232543 27 0 0.0 0.0 0.00 0.03 0.03 84 1012.7
20260901232043 27 0 0.0 0.0 0.00 0.03 0.03 83 1012.7
20260901231558 28 0 0.0 0.0 0.00 0.03 0.03 83 1012.5
20260901231046 28 0 0.0 0.0 0.00 0.03 0.03 81 1012.7